Weather History for Litchfield, MN

Change the Weather History Date:

Thursday, April 5, 2012

  Actual Average Record
Temperature  
Mean Temperature 48 °F -  
Max Temperature 59 °F 51 °F 80 °F (1991)
Min Temperature 37 °F 29 °F 9 °F (1979)
Degree Days  
Heating Degree Days 17    
Moisture  
Dew Point 27 °F    
Average Humidity 44    
Maximum Humidity 65    
Minimum Humidity 31    
Precipitation  
Precipitation 0.00 in - - ()
Sea Level Pressure  
Sea Level Pressure 30.07 in    
Wind  
Wind Speed 9 mph (East)    
Max Wind Speed 16 mph    
Max Gust Speed 21 mph    
Visibility 10 miles    
Events      
Averages and records for this station are not official NWS values.
T = Trace of Precipitation, MM = Missing Value Source: NWS Daily Summary

Daily Weather History Graph

Daily Weather History Graph

Search for Another Location

Airport:

Trip Planner

Search our weather history database for the weather conditions in past years. The results will help you decide how hot, cold, wet, or windy it might be!

Date:

Astronomy

Apr. 05, 2012 Rise Set
Actual Time 6:50 AM CDT 7:51 PM CDT
Civil Twilight 6:20 AM CDT 8:21 PM CDT
Nautical Twilight 5:44 AM CDT 8:57 PM CDT
Astronomical Twilight 5:06 AM CDT 9:35 PM CDT
Moon 6:58 PM CDT (4/5) 5:49 AM CDT (4/5)
Length of Visible Light 14h 01m
Length of Day
13h 01m
Waxing Gibbous, 98% of the Moon is Illuminated
Apr 5
Waxing Gibbous
Apr 6
Full
Apr 13
Last Quarter
Apr 21
New
Apr 29
First Quarter

Hourly Weather History & Observations

Time (CDT) Temp. Windchill Dew Point Humidity Pressure Visibility Wind Dir Wind Speed Gust Speed Precip Events Conditions
12:13 AM 46.4 °F 41.5 °F 24.8 °F 43% 29.99 in 10.0 mi East 10.4 mph - N/A   Clear
12:32 AM 48.2 °F - 21.2 °F 34% 29.99 in 10.0 mi East 11.5 mph - N/A   Clear
12:53 AM 46.4 °F 41.5 °F 21.2 °F 37% 29.99 in 10.0 mi East 10.4 mph - N/A   Clear
1:13 AM 44.6 °F 40.7 °F 21.2 °F 39% 29.99 in 10.0 mi East 6.9 mph - N/A   Clear
1:32 AM 44.6 °F 40.2 °F 21.2 °F 39% 30.00 in 10.0 mi ENE 8.1 mph - N/A   Clear
1:53 AM 44.6 °F 40.7 °F 19.4 °F 37% 30.00 in 10.0 mi ENE 6.9 mph - N/A   Clear
2:13 AM 44.6 °F 40.2 °F 21.2 °F 39% 30.01 in 10.0 mi ENE 8.1 mph - N/A   Clear
2:32 AM 42.8 °F 38.0 °F 21.2 °F 42% 30.01 in 10.0 mi ENE 8.1 mph - N/A   Clear
2:53 AM 42.8 °F 39.3 °F 21.2 °F 42% 30.00 in 10.0 mi ENE 5.8 mph - N/A   Clear
3:13 AM 42.8 °F 39.3 °F 21.2 °F 42% 30.00 in 10.0 mi ENE 5.8 mph - N/A   Clear
3:33 AM 41.0 °F 37.1 °F 21.2 °F 45% 30.00 in 10.0 mi ENE 5.8 mph - N/A   Clear
3:52 AM 41.0 °F 36.4 °F 21.2 °F 45% 30.00 in 10.0 mi ENE 6.9 mph - N/A   Clear
4:13 AM 39.2 °F 34.2 °F 21.2 °F 49% 30.01 in 10.0 mi ENE 6.9 mph - N/A   Clear
4:33 AM 39.2 °F 34.2 °F 21.2 °F 49% 30.01 in 10.0 mi ENE 6.9 mph - N/A   Clear
4:53 AM 39.2 °F 34.2 °F 23.0 °F 52% 30.02 in 10.0 mi ENE 6.9 mph - N/A   Clear
5:13 AM 39.2 °F 33.6 °F 23.0 °F 52% 30.03 in 10.0 mi ENE 8.1 mph - N/A   Clear
5:33 AM 39.2 °F 33.6 °F 23.0 °F 52% 30.04 in 10.0 mi ENE 8.1 mph - N/A   Clear
5:52 AM 37.4 °F 32.8 °F 23.0 °F 56% 30.05 in 10.0 mi ENE 5.8 mph - N/A   Clear
6:13 AM 37.4 °F 32.8 °F 23.0 °F 56% 30.06 in 10.0 mi ENE 5.8 mph - N/A   Clear
6:33 AM 37.4 °F 31.4 °F 24.8 °F 60% 30.07 in 10.0 mi ENE 8.1 mph - N/A   Clear
6:53 AM 37.4 °F 32.1 °F 24.8 °F 60% 30.07 in 10.0 mi ENE 6.9 mph - N/A   Clear
7:13 AM 37.4 °F 31.4 °F 24.8 °F 60% 30.08 in 10.0 mi East 8.1 mph - N/A   Clear
7:33 AM 37.4 °F 30.8 °F 26.6 °F 65% 30.08 in 10.0 mi East 9.2 mph - N/A   Clear
7:52 AM 39.2 °F 33.0 °F 26.6 °F 61% 30.09 in 10.0 mi East 9.2 mph - N/A   Clear
8:13 AM 39.2 °F 31.6 °F 26.6 °F 61% 30.10 in 10.0 mi East 12.7 mph - N/A   Clear
8:53 AM 44.6 °F 38.1 °F 30.2 °F 57% 30.10 in 10.0 mi East 13.8 mph - N/A   Clear
9:13 AM 44.6 °F 37.4 °F 30.2 °F 57% 30.11 in 10.0 mi ESE 16.1 mph - N/A   Clear
9:33 AM 46.4 °F 40.1 °F 32.0 °F 57% 30.11 in 10.0 mi ESE 15.0 mph 20.7 mph N/A   Clear
9:53 AM 48.2 °F - 32.0 °F 54% 30.11 in 10.0 mi ESE 13.8 mph - N/A   Clear
10:13 AM 48.2 °F - 32.0 °F 54% 30.12 in 10.0 mi East 12.7 mph - N/A   Clear
10:33 AM 50.0 °F - 32.0 °F 50% 30.12 in 10.0 mi ESE 12.7 mph 18.4 mph N/A   Clear
10:53 AM 50.0 °F - 32.0 °F 50% 30.12 in 10.0 mi ESE 13.8 mph - N/A   Clear
11:12 AM 51.8 °F - 32.0 °F 47% 30.12 in 10.0 mi ESE 11.5 mph - N/A   Clear
11:33 AM 51.8 °F - 32.0 °F 47% 30.12 in 10.0 mi ESE 11.5 mph 18.4 mph N/A   Clear
11:53 AM 53.6 °F - 32.0 °F 44% 30.12 in 10.0 mi ESE 12.7 mph 16.1 mph N/A   Clear
12:13 PM 55.4 °F - 32.0 °F 41% 30.12 in 10.0 mi SE 10.4 mph - N/A   Clear
12:33 PM 53.6 °F - 30.2 °F 41% 30.12 in 10.0 mi SE 10.4 mph - N/A   Clear
12:53 PM 55.4 °F - 32.0 °F 41% 30.12 in 10.0 mi ESE 10.4 mph 17.3 mph N/A   Clear
1:12 PM 55.4 °F - 30.2 °F 38% 30.12 in 10.0 mi ESE 12.7 mph - N/A   Clear
1:33 PM 55.4 °F - 30.2 °F 38% 30.12 in 10.0 mi ESE 9.2 mph - N/A   Clear
1:53 PM 55.4 °F - 28.4 °F 36% 30.12 in 10.0 mi ESE 9.2 mph - N/A   Clear
2:12 PM 55.4 °F - 28.4 °F 36% 30.11 in 10.0 mi ESE 11.5 mph 16.1 mph N/A   Clear
2:33 PM 57.2 °F - 30.2 °F 36% 30.11 in 10.0 mi ESE 11.5 mph - N/A   Clear
2:53 PM 59.0 °F - 30.2 °F 34% 30.11 in 10.0 mi ESE 13.8 mph - N/A   Clear
3:12 PM 57.2 °F - 30.2 °F 36% 30.11 in 10.0 mi ESE 12.7 mph - N/A   Clear
3:33 PM 57.2 °F - 30.2 °F 36% 30.11 in 10.0 mi East 9.2 mph - N/A   Clear
3:52 PM 57.2 °F - 30.2 °F 36% 30.11 in 10.0 mi East 9.2 mph - N/A   Clear
4:13 PM 57.2 °F - 28.4 °F 33% 30.11 in 10.0 mi East 11.5 mph - N/A   Clear
4:33 PM 59.0 °F - 28.4 °F 31% 30.11 in 10.0 mi East 8.1 mph - N/A   Clear
4:52 PM 57.2 °F - 28.4 °F 33% 30.11 in 10.0 mi East 10.4 mph - N/A   Clear
5:13 PM 57.2 °F - 28.4 °F 33% 30.10 in 10.0 mi ESE 8.1 mph - N/A   Clear
5:33 PM 57.2 °F - 26.6 °F 31% 30.10 in 10.0 mi SE 11.5 mph - N/A   Clear
5:52 PM 57.2 °F - 28.4 °F 33% 30.10 in 10.0 mi East 9.2 mph - N/A   Clear
6:13 PM 57.2 °F - 26.6 °F 31% 30.10 in 10.0 mi ESE 10.4 mph - N/A   Clear
6:33 PM 55.4 °F - 26.6 °F 33% 30.10 in 10.0 mi East 8.1 mph - N/A   Clear
6:52 PM 55.4 °F - 26.6 °F 33% 30.10 in 10.0 mi East 8.1 mph - N/A   Clear
7:13 PM 53.6 °F - 26.6 °F 35% 30.10 in 10.0 mi East 8.1 mph - N/A   Clear
7:33 PM 51.8 °F - 28.4 °F 41% 30.10 in 10.0 mi East 5.8 mph - N/A   Clear
7:52 PM 51.8 °F - 26.6 °F 38% 30.11 in 10.0 mi East 4.6 mph - N/A   Clear
8:13 PM 48.2 °F - 26.6 °F 43% 30.12 in 10.0 mi East 3.5 mph - N/A   Clear
8:33 PM 48.2 °F - 26.6 °F 43% 30.12 in 10.0 mi Calm Calm - N/A   Clear
8:53 PM 48.2 °F - 26.6 °F 43% 30.13 in 10.0 mi ESE 3.5 mph - N/A   Clear
9:13 PM 46.4 °F 43.5 °F 28.4 °F 50% 30.13 in 10.0 mi East 5.8 mph - N/A   Clear
9:32 PM 44.6 °F 40.7 °F 30.2 °F 57% 30.13 in 10.0 mi East 6.9 mph - N/A   Clear
9:53 PM 42.8 °F 37.5 °F 28.4 °F 57% 30.13 in 10.0 mi ESE 9.2 mph - N/A   Clear
10:13 PM 42.8 °F 38.0 °F 28.4 °F 57% 30.14 in 10.0 mi ESE 8.1 mph - N/A   Clear
10:33 PM 44.6 °F 40.7 °F 28.4 °F 53% 30.15 in 10.0 mi ESE 6.9 mph - N/A   Clear
10:53 PM 44.6 °F 43.1 °F 26.6 °F 49% 30.15 in 10.0 mi East 3.5 mph - N/A   Clear
11:13 PM 44.6 °F 43.1 °F 28.4 °F 53% 30.15 in 10.0 mi ESE 3.5 mph - N/A   Clear
11:32 PM 44.6 °F - 26.6 °F 49% 30.16 in 10.0 mi Calm Calm - N/A   Clear
11:53 PM 41.0 °F 38.0 °F 26.6 °F 57% 30.16 in 10.0 mi ENE 4.6 mph - N/A   Clear